Location: Zagreb
(45.8000°N, 16.0000°E)
Time: 13:55:25
(UTC+02:00)

Transit 2A Rocket - Pass Details

Date: 14 August 2022
Orbit: 593 x 907 km, 66.7° (Epoch: 25 September)

Event Time Altitude Azimuth Distance (km) Brightness Sun altitude
Rises 19:15:31 0° 224° (SW) 2,986 8.5 7.6°
Reaches altitude 10° 19:17:55 10° 229° (SW) 2,036 7.8 7.2°
Maximum altitude 19:22:22 53° 307° (NW) 757 5.7 6.4°
Drops below altitude 10° 19:26:38 10° 25° (NNE) 1,947 7.0 5.7°
Sets 19:28:54 0° 30° (NNE) 2,843 7.8 5.3°
